Find Starlink 36701

NORAD ID: 67658 Int'l Des: 2026-022 Owner: SPXS Country: US Constellation: starlink operational
LEOCIRCULARRETROGRADE

Aktuelle Ansicht

3D-Globus wird geladen...

Über Starlink 36701

Beschreibung wird geladen...

Nächste Überflüge

Passes for default location (London). Set your location on the main map for personalized predictions.

Höhenverlauf

Loading altitude history...

Zweizeiliger Elementsatz

1 67658U 26022L 26146.09330265 .00023323 00000-0 72186-3 0 9991
2 67658 97.2835 179.3134 0001319 138.7624 221.3718 15.33475065 17439
Epoch: 26. Mai 2026 • Age: 14 hours

Aktueller Status

Höhe 469.2 km
Geschwindigkeit 7.63 km/s
Subsatellitenpunkt 27.81°N, 44.97°E
Startdatum 2. Feb. 2026
Alter 0.3 years
Typ internet

Technische Details

Klassifizierung Payload
Masse 575.00 kg
Trockenmasse 530.00 kg
Gesamtmasse 575.00 kg
Länge 0.30 m
Durchmesser 4.10 m
Spannweite 29.00 m
Form Box + pan
Hersteller SPXS
Bus-Typ Starlink V2MO
Phasenstatus In Orbit
Besitzer/Staat SPXS/US

Most Searched